Lincoln, NE

2:08 PM CDT on May 22, 2017 (GMT -0500)
Lincoln Municipal

Weather History for KLNK - March, 2014

Change the Weather History Date:

Saturday, March 22, 2014

  Actual Average Record
Temperature  
Mean Temperature 29 °F 42 °F  
Max Temperature 35 °F 55 °F 90 °F (1910)
Min Temperature 22 °F 30 °F 6 °F (2002)
Degree Days  
Heating Degree Days 36 23  
Month to date heating degree days 652 586  
Since 1 July heating degree days 5769 5289  
Cooling Degree Days 0 0  
Month to date cooling degree days 0 0  
Year to date cooling degree days 0 0  
Moisture  
Dew Point 10 °F    
Average Humidity 47    
Maximum Humidity 69    
Minimum Humidity 25    
Precipitation  
Precipitation 0.00 in 0.07 in 1.75 in (1979)
Month to date precipitation 0.06 1.24  
Year to date precipitation 0.92 2.65  
Snow  
Snow 0.00 in 0.10 in - ()
Month to date snowfall 0.7 3.7  
Since 1 July snowfall 17.7 23.4  
Snow Depth 0.00 in    
Sea Level Pressure  
Sea Level Pressure 30.44 in    
Wind  
Wind Speed 15 mph (North)    
Max Wind Speed 24 mph    
Max Gust Speed 31 mph    
Visibility 10 miles    
Events      
T = Trace of Precipitation, MM = Missing Value Source: NWS Daily Summary

Daily Weather History Graph

Daily Weather History Graph

Search for Another Location

Airport or City:

Trip Planner

Search our weather history database for the weather conditions in past years. The results will help you decide how hot, cold, wet, or windy it might be!

Date:

Astronomy

Mar. 22, 2014 Rise Set
Actual Time 7:27 AM CDT 7:41 PM CDT
Civil Twilight 6:59 AM CDT 8:08 PM CDT
Nautical Twilight 6:27 AM CDT 8:40 PM CDT
Astronomical Twilight 5:54 AM CDT 9:13 PM CDT
Moon 1:03 AM CDT 11:09 AM CDT
Length of Visible Light 13h 09m
Length of Day
12h 14m
Waning Gibbous, 65% of the Moon is Illuminated
Mar 22
Waning Gibbous
Mar 23
Last Quarter
Mar 30
New
Apr 7
First Quarter
Apr 15
Full

Hourly Weather History & Observations

Time (CDT) Temp. Windchill Dew Point Humidity Pressure Visibility Wind Dir Wind Speed Gust Speed Precip Events Conditions
12:54 AM 30.0 °F 17.9 °F 19.9 °F 66% 30.30 in 10.0 mi North 18.4 mph - N/A   Clear
1:54 AM 28.9 °F 17.7 °F 19.0 °F 67% 30.33 in 10.0 mi North 15.0 mph - N/A   Clear
2:54 AM 27.0 °F 16.1 °F 18.0 °F 69% 30.36 in 10.0 mi North 12.7 mph - N/A   Clear
3:54 AM 26.1 °F 14.0 °F 17.1 °F 69% 30.35 in 10.0 mi North 15.0 mph - N/A   Clear
4:54 AM 24.1 °F 12.0 °F 15.1 °F 69% 30.36 in 10.0 mi North 13.8 mph - N/A   Clear
5:54 AM 23.0 °F 11.7 °F 12.9 °F 65% 30.37 in 10.0 mi North 11.5 mph - N/A   Clear
6:54 AM 21.9 °F 9.2 °F 10.9 °F 63% 30.39 in 10.0 mi North 13.8 mph - N/A   Clear
7:54 AM 23.0 °F 9.2 °F 12.0 °F 63% 30.43 in 10.0 mi North 17.3 mph - N/A   Overcast
8:54 AM 21.9 °F 6.5 °F 10.9 °F 63% 30.45 in 10.0 mi North 20.7 mph - N/A   Clear
9:54 AM 24.1 °F 10.6 °F 10.9 °F 57% 30.46 in 10.0 mi NNE 17.3 mph - N/A   Clear
10:54 AM 28.9 °F 18.6 °F 10.9 °F 47% 30.48 in 10.0 mi North 12.7 mph - N/A   Clear
11:54 AM 30.9 °F 18.7 °F 7.0 °F 37% 30.48 in 10.0 mi NNE 19.6 mph 25.3 mph N/A   Scattered Clouds
12:54 PM 34.0 °F 23.4 °F 5.0 °F 30% 30.45 in 10.0 mi NNE 17.3 mph - N/A   Partly Cloudy
1:54 PM 34.0 °F 23.4 °F 3.0 °F 27% 30.45 in 10.0 mi North 17.3 mph 26.5 mph N/A   Mostly Cloudy
2:54 PM 33.1 °F 20.9 °F 1.9 °F 27% 30.45 in 10.0 mi North 21.9 mph - N/A   Overcast
3:54 PM 30.9 °F 19.4 °F 8.1 °F 38% 30.47 in 10.0 mi NE 17.3 mph - N/A   Overcast
4:54 PM 32.0 °F 23.6 °F 10.0 °F 40% 30.48 in 10.0 mi NNE 10.4 mph - N/A   Overcast
5:54 PM 30.9 °F 19.8 °F 12.0 °F 46% 30.48 in 10.0 mi North 16.1 mph - N/A   Overcast
6:54 PM 30.0 °F 17.9 °F 7.0 °F 38% 30.48 in 10.0 mi North 18.4 mph 23.0 mph N/A   Overcast
7:54 PM 30.0 °F 18.3 °F 3.9 °F 33% 30.49 in 10.0 mi NNE 17.3 mph - N/A   Overcast
8:54 PM 28.9 °F 18.2 °F 7.0 °F 40% 30.52 in 10.0 mi North 13.8 mph - N/A   Overcast
9:54 PM 28.0 °F 18.1 °F 7.0 °F 41% 30.56 in 10.0 mi North 11.5 mph - N/A   Overcast
10:54 PM 28.0 °F 20.0 °F 6.1 °F 39% 30.56 in 10.0 mi NNW 8.1 mph - N/A   Overcast
11:54 PM 27.0 °F 17.3 °F 3.9 °F 37% 30.58 in 10.0 mi North 10.4 mph - N/A   Clear